Location: *
(2.5500°S, 65.9667°W)
Time: 18:11:59
(UTC+00:00)

Transit 2A Rocket - Visible Passes

Search period start: 17 May 2025 00:00
Search period end: 27 May 2025 00:00
Orbit: 591 x 895 km, 66.7° (Epoch: 17 May)

Date Brightness Start Highest point End Pass type
(mag) Time Alt. Az. Time Alt. Az. Time Alt. Az.
24 May 7.2 00:30:45 10° N 00:31:45 15° N 00:31:45 15° N visible
24 May 7.0 23:47:13 10° NNE 23:48:33 14° NE 23:48:33 14° NE visible
25 May 7.9 01:27:52 10° NW 01:28:20 12° NW 01:28:20 12° NW visible
26 May 6.4 00:42:14 10° NNW 00:45:12 35° NNW 00:45:12 35° NNW visible
